Assumption Island Airport

Jump to: basic info | weather | runways | comments

Related pages: nearby airports | nearby navaids | notams | map

Basic information (top)

Codes: FSAS
Location: lon -9.742220, lat 46.506802, elev 10 ft / 3 m msl
Status: small_airport

Weather (top)

Current conditions for Prince Said Ibrahim International Airport 219nm (406km) WSW (rec'd 2014/10/22 17:00Z):

FMCH 221700Z METAR FMMT 221700Z 04010KT 9999 VCSH SCT017CB BKN033 26/24 Q1014 TEMPO TSRA

Airport forecast for Prince Said Ibrahim International Airport 219nm (406km) WSW (rec'd 2014/10/22 18:00Z):

TAF FMCH 221700Z 2218/2324 09004KT 9999 FEW020 SCT030 
      BECMG 2305/2307 22010KT PROB30 
      TEMPO 2310/2315 SHRA 
      BECMG 2316/2318 10004KT

Runways (top)

13/31: 3,963 x 75 ft (1,208 x 23 m) — paved — not lighted

Latest comments (top)

No comments yet for Assumption Island Airport

More... (top)

See also NOTAMs and nearby airports and navaids, or visit the Assumption Island Airport page at the main OurAirports website..